Regional Weather Roundup
Issued by NWS

Home | Current Version | Previous Version | Graphics & Text | Print | Product List | Glossary On
Versions: 1 2 3 4 5 6 7 8 9 10 11 12 13 14 15 16 17 18 19 20 21 22 23 24 25 26 27 28
000
ASUS45 KBOU 220307
RWRCO

WEATHER ROUNDUP FOR COLORADO
NATIONAL WEATHER SERVICE DENVER/BOULDER CO
800 PM MST SAT JAN 21 2017

NOTE: "FAIR" INDICATES FEW OR NO CLOUDS BELOW 12000 FEET WITH NO
SIGNIFICANT WEATHER AND/OR OBSTRUCTIONS TO VISIBILITY.

COZ001>005-013-030-031-220400-
...NORTHWEST COLORADO...

CITY           SKY/WX    TMP DP  RH WIND       PRES   REMARKS
CRAIG          LGT SNOW  27  23  85 SW13      29.73R FOG     WCI  16
HAYDEN         CLOUDY    25  19  80 W17       29.71R WCI  11
MEEKER         LGT SNOW  27  26  96 SW6       29.73R FOG     WCI  20
MOUNT WERNER   NOT AVBL
STEAMBOAT SPGS CLOUDY    24  23  94 SW10      29.68R WCI  14
WALDEN           N/A     14  12  92 SE8       29.65R WCI   3
$$

COZ006>008-011-220400-
...WEST CENTRAL VALLEYS...

CITY           SKY/WX    TMP DP  RH WIND       PRES   REMARKS
GRAND JUNCTION CLOUDY    33  33 100 NW7       29.76R WCI  27
MONTROSE       CLOUDY    33  29  85 CALM      29.75R
EAGLE          LGT SNOW  27  27 100 CALM      29.68R FOG
RIFLE          CLOUDY    34  27  75 W13       29.72R WCI  25
DELTA          CLOUDY    37  32  84 SW15      29.72R
NUCLA          MOCLDY    32  28  86 CALM      29.80R
$$

COZ017>023-064>068-220400-
...SOUTHWEST COLORADO...

CITY           SKY/WX    TMP DP  RH WIND       PRES   REMARKS
DURANGO        FAIR      28  24  85 W18G25    29.69R WCI  15
CORTEZ         CLOUDY    31  28  89 W15       29.78R WCI  20
PAGOSA SPRINGS NOT AVBL
TELLURIDE      LGT SNOW N/A N/A N/A W9G23     29.74
WOLF CREEK PAS CLOUDY    10  10 100 SW8       29.69R WCI  -1
$$

COZ009-010-012-014-032>034-037-058>063-220400-
...CENTRAL COLORADO...

CITY           SKY/WX    TMP DP  RH WIND       PRES   REMARKS
ASPEN          LGT SNOW  26  25  96 N6        29.65R FOG     WCI  19
BUENA VISTA    FAIR      16  13  87 NW5       29.60R WCI   9
COPPER MTN     LGT SNOW  18  10  73 MISG      29.60R
BERTHOUD PASS  NOT AVBL
COTTONWOOD PAS CLOUDY    27  14  59 W9        29.59R WCI  17
GUNNISON       MOCLDY    17  13  84 N3        29.67R
KREMMLING      CLOUDY    19  14  79 CALM      29.68R
LEADVILLE      LGT SNOW  18  15  88 N7        29.59R FOG     WCI   9
MONARCH PASS   CLOUDY    12  10  92 NW6       29.70R WCI   3
SALIDA         MOCLDY    27  22  81 CALM      29.67R
SUNLIGHT       CLOUDY    16  12  86 MISG      29.69R
WILKERSON PASS CLOUDY    18  12  79 NW10G18   29.61R WCI   6
$$

COZ069>075-220400-
...SAN LUIS VALLEY/SANGRE DE CRISTO MOUNTAINS...

CITY           SKY/WX    TMP DP  RH WIND       PRES   REMARKS
ALAMOSA        CLOUDY    20  19  96 S5        29.60R WCI  13
LA VETA PASS   LGT SNOW  21  18  86 NE18      29.56R WCI   6
SAGUACHE       CLOUDY    28  19  69 NW12      29.61R WCI  18
$$

COZ035-036-038>040-220400-
...NORTHERN COLORADO FRONT RANGE...

CITY           SKY/WX    TMP DP  RH WIND       PRES   REMARKS
DENVER INTL AP MOCLDY    33  24  69 NW8       29.57R WCI  26
DMNS CITY PARK   N/A     35  25  65 NW2       29.59R
AURORA         MOCLDY    33  27  81 CALM      29.58R
FRONT RANGE AP MOCLDY    32  28  86 W8        29.58R WCI  25
ERIE MUNI ARPT MOCLDY    32  28  84 CALM      29.59R
BOULDER MUN AP MOCLDY    34  27  75 W3        29.59R
CENTENNIAL     MOCLDY    33  24  69 W5        29.57R WCI  29
BROOMFIELD     MOCLDY    34  27  75 NW6       29.58R WCI  29
FORT COLLINS   FAIR      30  25  80 N6        29.60R WCI  24
LONGMONT       MOCLDY    32  28  83 NW3       29.61R
$$

COZ041-046-047-076>085-087-088-220400-
...PIKES PEAK/PALMER DIVIDE AND SOUTHERN FOOTHILLS...

CITY           SKY/WX    TMP DP  RH WIND       PRES   REMARKS
COLO. SPRINGS  MOCLDY    29  21  72 NE10      29.57R WCI  20
A. F. ACADEMY  MOCLDY    29  19  66 NW5       29.56R WCI  24
SCHRIEVER AFB  NOT AVBL
ELLICOTT       FAIR     N/A N/A N/A NE3       29.55R
FALCON         NOT AVBL
FORT CARSON    NOT AVBL
LIMON          CLOUDY    28  28 100 N3        29.57R
MONUMENT HILL  FAIR      23  19  86 W6        29.58R WCI  16
TRINIDAD       FAIR      28  23  81 W7        29.54R WCI  21
$$

COZ042>045-048>051-090-091-220400-
...NORTHEAST COLORADO...

CITY           SKY/WX    TMP DP  RH WIND       PRES   REMARKS
GREELEY ARPT   FAIR      28  25  88 N5        29.60  WCI  23
AKRON          CLOUDY    34  24  67 NE3       29.57R
BURLINGTON     MOCLDY    36  29  75 N10       29.54R
WRAY           NOT AVBL
STERLING       CLOUDY    32  28  86 N3        29.56R
HOLYOKE        FAIR      34  28  80 N3        29.58R
FORT MORGAN    FAIR      33  23  66 NE3       29.58R
$$

COZ086-089-092>099-220400-
...SOUTHEAST COLORADO...

CITY           SKY/WX    TMP DP  RH WIND       PRES   REMARKS
PUEBLO         CLOUDY    34  29  82 NW7       29.56R WCI  28
LA JUNTA       MOCLDY    35  31  85 NW9       29.54R WCI  28
LAMAR          CLOUDY    38  33  82 N6        29.49R
SPRINGFIELD      N/A     34  31  88 NW17      29.46R WCI  23
$$




USA.gov is the U.S. government's official web portal to all federal, state and local government web resources and services.